Regional Weather Roundup
Issued by NWS Cleveland, OH

Home | Current Version | Previous Version | Graphics & Text | Print | Product List | Glossary On
Versions: 1 2 3 4 5 6 7 8 9 10 11 12 13 14 15 16 17 18 19 20 21 22 23 24 25 26 27 28 29 30 31 32 33 34 35 36 37 38 39 40 41 42 43 44 45 46 47 48 49 50
000
ASUS41 KCLE 280000
RWRCLE
OHIO REGIONAL WEATHER ROUNDUP
NATIONAL WEATHER SERVICE WILMINGTON, OH
800 PM EDT SUN MAY 27 2018

NOTE: "FAIR" INDICATES FEW OR NO CLOUDS BELOW 12,000 FEET WITH NO
SIGNIFICANT WEATHER AND/OR OBSTRUCTIONS TO VISIBILITY.

OHZ001>008-015>018-024>027-034-035-043-044-280100-
   NORTHWEST OHIO

CITY           SKY/WX    TMP DP  RH WIND       PRES   REMARKS
DEFIANCE       FAIR      88  65  46 E3        29.88F HX  90
FINDLAY        FAIR      87  62  43 SE5       29.89S
TOLEDO EXPRESS FAIR      87  64  46 CALM      29.88S
TOLEDO EXEC    FAIR      85  70  60 SE9       29.89F
LIMA           FAIR      87  60  40 E5        29.92R
$$

OHZ009>014-019>023-028>033-038-089-280100-
   NORTHEAST OHIO

CITY           SKY/WX    TMP DP  RH WIND       PRES   REMARKS
CLE-HOPKINS    FAIR      84  61  45 NE3       29.94S
CLE-LAKEFRONT  FAIR      80  67  64 CALM      29.90F
CUY CO. ARPT   PTCLDY    84  63  48 CALM      29.94S
LORAIN-ELYRIA  FAIR      85  59  41 NE7       29.92S
ASHTABULA      FAIR      78  66  66 CALM      29.94S
AKRON-CANTON   FAIR      83  65  54 CALM      29.95S
WOOSTER        NOT AVBL
MANSFIELD      FAIR      82  70  66 E8        29.95R
YOUNGSTOWN     FAIR      78  69  73 S3        29.95R
$$

OHZ042-051>053-060>062-070>072-077>081-280100-
  SOUTHWEST OHIO

CITY           SKY/WX    TMP DP  RH WIND       PRES   REMARKS
CINC-COVINGTON MOCLDY    80  70  71 S3        29.91S
CINC-LUNKEN    FAIR      80  76  87 CALM      29.90R
HAMILTON       FAIR      85  72  65 CALM      29.91R HX  91
DAYTON         NOT AVBL
WRIGHT-PAT AFB FAIR      88  65  45 E3        29.91R HX  90
DAYTON GENERAL FAIR      86  66  51 SE3       29.91R
WILMINGTON     FAIR      79  65  62 SE8G16    29.92R
$$

OHZ036-037-039>041-045>050-054>059-063>069-073>076-082>088-280100-
  CENTRAL AND SOUTHEAST OHIO

CITY           SKY/WX    TMP DP  RH WIND       PRES   REMARKS
COLUMBUS       CLOUDY    84  65  52 SE6       29.92R
OSU AIRPORT    FAIR      83  67  58 E7        29.92R
BOLTON FIELD   NOT AVBL
RICKENBACK AFB NOT AVBL
NEWARK         FAIR      83  67  58 E6        29.93R
MARION         FAIR      84  65  52 SE7       29.93R
LANCASTER      FAIR      80  70  71 E8        29.94R
ZANESVILLE     FAIR      82  67  60 NE3       29.94R
NEW PHILLY     FAIR      79  69  71 CALM      29.95R
$$




USA.gov is the U.S. government's official web portal to all federal, state and local government web resources and services.